Regional Weather Roundup
Issued by NWS Portland, ME

Current Version | Previous Version | Text Only | Print | Product List | Glossary Off
Versions: 1 2 3 4 5 6 7 8 9 10 11 12 13 14 15 16 17 18 19 20 21 22 23 24 25 26 27 28 29 30 31 32 33 34 35 36 37 38 39 40 41 42 43 44 45 46 47 48 49 50
000 ASUS41 KGYX 260005 RWRGYX WEATHER ROUNDUP FOR MAINE AND NEW HAMPSHIRE NATIONAL WEATHER SERVICE GRAY ME 800 PM EDT MON SEP 25 2017 MEZ002-005-006-010-012-015-018-020-021-024-026-027-029-260100- MAINE CITY SKY/WX TMP DP RH WIND PRES REMARKS PORTLAND CLEAR 67 61 81 CALM 30.07R 6HR MIN TEMP: 67; 6HR MAX TEMP: 83; SANFORD CLEAR 66 65 96 S3 30.08R BAR HARBOR CLEAR 64 61 90 SW7 30.08R WISCASSET CLEAR 67 63 87 CALM 30.08S 6HR MIN TEMP: 66; 6HR MAX TEMP: 82; ROCKLAND CLEAR 62 60 93 W3 30.07S FRYEBURG CLOUDY 76 71 85 SW3 30.07R 6HR MIN TEMP: 76; 6HR MAX TEMP: 90; LEWISTONAUBURN PTCLDY 70 67 90 SE5 30.07R AUGUSTA CLEAR 74 67 78 S6 30.07R 6HR MIN TEMP: 74; 6HR MAX TEMP: 88; WATERVILLE CLEAR 74 68 81 S5 30.03S BANGOR CLEAR 72 64 76 S8 30.05R 6HR MIN TEMP: 72; 6HR MAX TEMP: 88; GREENVILLE N/A 75 67 76 S7 30.06S 6HR MIN TEMP: 72; 6HR MAX TEMP: 83; MILLINOCKET CLEAR 78 69 73 CALM 30.02R 6HR MIN TEMP: 77; 6HR MAX TEMP: 86; HOULTON CLEAR 78 69 73 SW7 29.98S 6HR MIN TEMP: 78; 6HR MAX TEMP: 87; PRESQUE ISLE CLEAR 78 69 73 SW10 29.97R 6HR MIN TEMP: 77; 6HR MAX TEMP: 87; FRENCHVILLE CLEAR 76 59 55 W8 29.95S 6HR MIN TEMP: 76; 6HR MAX TEMP: 87; CARIBOU CLEAR 78 67 68 SW7 29.95R 6HR MIN TEMP: 77; 6HR MAX TEMP: 88; $$ NHZ002-005-008-009-011-012-014-260100- NEW HAMPSHIRE CITY SKY/WX TMP DP RH WIND PRES REMARKS PORTSMOUTH CLEAR 68 61 76 S3 30.05R ROCHESTER CLEAR 70 64 81 CALM 30.07R 6HR MIN TEMP: 70; 6HR MAX TEMP: 88; NASHUA CLEAR 77 63 61 SE7 30.07R MANCHESTER CLEAR 78 67 68 S5 30.05R 6HR MIN TEMP: 78; 6HR MAX TEMP: 89; CONCORD CLEAR 76 71 85 SE3 30.06R 6HR MIN TEMP: 76; 6HR MAX TEMP: 90; LACONIA CLEAR 74 71 91 NW3 30.07R PLYMOUTH CLOUDY 75 69 80 CALM 30.07R BERLIN CLEAR 69 65 86 CALM 30.08R 6HR MIN TEMP: 69; 6HR MAX TEMP: 91; WHITEFIELD CLEAR 71 65 81 CALM 30.08R 6HR MIN TEMP: 71; 6HR MAX TEMP: 90; JAFFREY PTCLDY 72 70 93 CALM 30.10R 6HR MIN TEMP: 72; 6HR MAX TEMP: 88; KEENE PTCLDY 73 70 90 CALM 30.07R LEBANON CLEAR 73 69 87 CALM 30.06R 6HR MIN TEMP: 73; 6HR MAX TEMP: 90; MT WASHINGTON NOT AVBL $$ VTZ005-007-008-260100- VERMONT CITY SKY/WX TMP DP RH WIND PRES REMARKS ST JOHNSBURY N/A 73 68 84 MISG 30.04R MONTPELIER CLEAR 69 65 86 CALM 30.11S BURLINGTON PTCLDY 77 69 76 E3 30.02S $$ MAZ007-012-024-CTZ003-RIZ002-NYZ038-NYZ072-260100- SOUTHERN NEW ENGLAND AND NY CITY SKY/WX TMP DP RH WIND PRES REMARKS BOSTON PTCLDY 68 66 93 E6 30.06R WORCESTER CLEAR 75 62 64 SE5 30.10R NANTUCKET CLOUDY 63 63 100 NE7 30.06S PROVIDENCE PTCLDY 69 68 96 SW5 30.06R HARTFORD PTCLDY 79 68 69 S9 30.04R ALBANY PTCLDY 77 67 71 CALM 30.03R NEW YORK CITY CLEAR 76 64 66 S9 30.03R $$ ANZ081-ANZ082-ANZ150-NHZ014-MEZ023>029-260100- COASTAL MARINE OBSERVATIONS STATION/POSITION TIME TEMP WIND PRES WAVE AIR SEA DIR/SP/G HT/PER (UTC) (F) (DEG/KT/KT) (MB) (FT/S) MOUNT DESERT ROC 2300 59 190/ 10/ 10 1018.3F MATINICUS ROCK 2300 62 200/ 11/ 11 1017.8F ISLE OF SHOALS 2300 68 150/ 15/ 15 1017.3S JEFFREYS LEDGE 2336 65 N/A 5/15 GEORGES BANK BUO 2250 76 77 1017.0 9/15 $$ .............KEY.............. WCI - WIND CHILL TC - TEMPERATURE IN CELSIUS VSB - VISIBILITY IN MILES HX - HEAT INDEX FAIR- INDICATES FEW OR NO CLOUDS BELOW 12,000 FT, WITH NO SIGNIFICANT WEATHER AND/OR OBSTRUCTIONS TO VISIBILITY.

USA.gov is the U.S. government's official web portal to all federal, state and local government web resources and services.